| time (UTC) | temp C | wind direction | speed KPH | gust KPH | rain 1hr cm | rain 24hr cm | rain mn cm | humidity % | barometer mb |
| 20260507212111 | 6 | 265 | 0.0 | 0.0 | 0.00 | 1.50 | 1.50 | 93 | 1013.0 |
| 20260507205111 | 6 | 265 | 0.0 | 0.0 | 0.00 | 1.55 | 1.50 | 93 | 1012.7 |
| 20260507204110 | 6 | 265 | 0.0 | 0.0 | 0.00 | 1.55 | 1.50 | 93 | 1012.6 |
| 20260507203110 | 7 | 265 | 0.0 | 0.0 | 0.00 | 1.55 | 1.50 | 93 | 1012.5 |
| 20260507201110 | 7 | 265 | 0.0 | 0.0 | 0.00 | 1.55 | 1.50 | 93 | 1012.3 |
| 20260507200110 | 7 | 265 | 0.0 | 0.0 | 0.00 | 1.55 | 1.50 | 92 | 1012.3 |
| 20260507194110 | 7 | 265 | 0.0 | 0.0 | 0.00 | 1.70 | 1.50 | 93 | 1012.0 |
| 20260507182110 | 9 | 265 | 0.0 | 1.6 | 0.03 | 1.70 | 1.50 | 92 | 1011.1 |
| 20260507181110 | 9 | 265 | 0.0 | 3.2 | 0.03 | 1.70 | 1.50 | 92 | 1011.0 |
| 20260507180109 | 9 | 265 | 0.0 | 0.0 | 0.03 | 1.70 | 1.50 | 91 | 1011.1 |
| 20260507174109 | 9 | 265 | 0.0 | 0.0 | 0.03 | 1.70 | 1.50 | 91 | 1011.1 |
| 20260507172109 | 10 | 265 | 0.0 | 0.0 | 0.00 | 1.68 | 1.47 | 90 | 1010.8 |
| 20260507165114 | 10 | 263 | 1.6 | 9.7 | 0.00 | 1.73 | 1.47 | 89 | 1010.6 |
| 20260507163114 | 11 | 267 | 0.0 | 6.4 | 0.00 | 1.73 | 1.47 | 89 | 1010.7 |
| 20260507161114 | 11 | 270 | 1.6 | 9.7 | 0.00 | 1.73 | 1.47 | 87 | 1010.5 |
| 20260507155114 | 12 | 285 | 0.0 | 8.0 | 0.00 | 1.73 | 1.47 | 85 | 1010.7 |
| 20260507153113 | 13 | 288 | 1.6 | 9.7 | 0.00 | 1.73 | 1.47 | 83 | 1010.4 |
| 20260507151113 | 13 | 276 | 4.8 | 16.1 | 0.00 | 1.73 | 1.47 | 81 | 1010.5 |
| 20260507150113 | 13 | 355 | 1.6 | 16.1 | 0.00 | 1.73 | 1.47 | 83 | 1010.6 |
| 20260507141113 | 13 | 300 | 1.6 | 11.3 | 0.00 | 1.73 | 1.47 | 84 | 1010.2 |
| 20260507140113 | 13 | 5 | 0.0 | 8.0 | 0.00 | 1.73 | 1.47 | 84 | 1010.5 |
| 20260507135113 | 14 | 281 | 8.0 | 16.1 | 0.00 | 1.73 | 1.47 | 82 | 1010.4 |
| 20260507125113 | 13 | 162 | 4.8 | 17.7 | 0.00 | 1.73 | 1.47 | 90 | 1010.1 |
| 20260507124112 | 12 | 202 | 0.0 | 1.6 | 0.00 | 1.73 | 1.47 | 92 | 1009.9 |
| 20260507123112 | 12 | 202 | 0.0 | 0.0 | 0.00 | 1.73 | 1.47 | 92 | 1009.7 |
| 20260507122112 | 12 | 202 | 1.6 | 8.0 | 0.05 | 1.73 | 1.47 | 92 | 1009.7 |
| 20260507114112 | 12 | 184 | 0.0 | 6.4 | 0.18 | 1.73 | 1.47 | 93 | 1009.5 |
| 20260507113112 | 11 | 184 | 0.0 | 0.0 | 0.18 | 1.73 | 1.47 | 91 | 1009.3 |
| 20260507112112 | 12 | 153 | 3.2 | 17.7 | 0.15 | 1.68 | 1.45 | 92 | 1009.3 |
| 20260507100112 | 11 | 296 | 0.0 | 0.0 | 0.00 | 1.55 | 1.30 | 94 | 1008.9 |
| 20260507093111 | 11 | 170 | 0.0 | 11.3 | 0.00 | 1.55 | 1.30 | 95 | 1008.6 |
| 20260507092111 | 11 | 189 | 0.0 | 0.0 | 0.00 | 1.55 | 1.30 | 95 | 1008.5 |
| 20260507091111 | 11 | 192 | 0.0 | 0.0 | 0.00 | 1.55 | 1.30 | 95 | 1008.3 |
| 20260507090111 | 11 | 196 | 1.6 | 9.7 | 0.00 | 1.55 | 1.30 | 95 | 1008.3 |
| 20260507085111 | 11 | 146 | 0.0 | 9.7 | 0.00 | 1.55 | 1.30 | 95 | 1008.2 |
| 20260507084111 | 11 | 163 | 0.0 | 0.0 | 0.10 | 1.55 | 1.30 | 95 | 1008.2 |
| 20260507082111 | 11 | 158 | 0.0 | 8.0 | 0.38 | 1.55 | 1.30 | 95 | 1007.8 |
| 20260507080111 | 10 | 158 | 1.6 | 9.7 | 0.38 | 1.55 | 1.30 | 95 | 1007.4 |
| 20260507075111 | 10 | 5 | 0.0 | 6.4 | 0.38 | 1.55 | 1.30 | 95 | 1007.4 |
| 20260507071111 | 10 | 115 | 0.0 | 8.0 | 0.00 | 1.17 | 0.91 | 95 | 1007.2 |
| 20260507070110 | 10 | 115 | 0.0 | 0.0 | 0.00 | 1.17 | 0.91 | 95 | 1007.2 |
| 20260507063110 | 10 | 115 | 0.0 | 3.2 | 0.03 | 1.17 | 0.91 | 95 | 1007.0 |
| 20260507062110 | 10 | 114 | 0.0 | 8.0 | 0.05 | 1.17 | 0.91 | 95 | 1006.8 |
| 20260507061110 | 10 | 114 | 0.0 | 0.0 | 0.05 | 1.17 | 0.91 | 95 | 1006.7 |
| 20260507060110 | 9 | 114 | 0.0 | 1.6 | 0.05 | 1.17 | 0.91 | 95 | 1006.7 |
| 20260507055110 | 9 | 114 | 0.0 | 0.0 | 0.05 | 1.17 | 0.91 | 95 | 1006.8 |
| 20260507053110 | 9 | 114 | 1.6 | 9.7 | 0.08 | 1.17 | 0.89 | 95 | 1006.7 |
| 20260507052110 | 9 | 114 | 0.0 | 9.7 | 0.05 | 1.14 | 0.89 | 95 | 1006.6 |
| 20260507050110 | 9 | 113 | 0.0 | 0.0 | 0.15 | 1.14 | 0.89 | 94 | 1006.4 |
| 20260507044110 | 10 | 113 | 0.0 | 0.0 | 0.15 | 1.09 | 0.81 | 94 | 1006.6 |
| 20260507040110 | 10 | 112 | 0.0 | 0.0 | 0.18 | 0.99 | 0.71 | 94 | 1006.0 |
| 20260507032109 | 10 | 113 | 0.0 | 0.0 | 0.15 | 0.86 | 0.61 | 94 | 1005.9 |
| 20260507031109 | 10 | 112 | 0.0 | 0.0 | 0.10 | 0.81 | 0.56 | 94 | 1005.9 |
| 20260507030109 | 10 | 112 | 0.0 | 0.0 | 0.08 | 0.79 | 0.53 | 94 | 1006.0 |
| 20260507025109 | 10 | 112 | 0.0 | 0.0 | 0.05 | 0.79 | 0.51 | 94 | 1006.0 |
| 20260507024109 | 10 | 112 | 0.0 | 0.0 | 0.03 | 0.74 | 0.48 | 94 | 1006.0 |
| 20260507023109 | 10 | 112 | 0.0 | 0.0 | 0.00 | 0.71 | 0.46 | 94 | 1005.8 |
| 20260507021109 | 10 | 112 | 0.0 | 0.0 | 0.00 | 0.71 | 0.46 | 94 | 1005.9 |
| 20260507011112 | 11 | 112 | 0.0 | 0.0 | 0.00 | 0.71 | 0.46 | 94 | 1005.6 |
| 20260507010112 | 11 | 111 | 0.0 | 1.6 | 0.00 | 0.71 | 0.46 | 94 | 1005.4 |
| 20260507004112 | 11 | 111 | 3.2 | 9.7 | 0.03 | 0.76 | 0.46 | 94 | 1005.3 |
| 20260507003112 | 11 | 107 | 1.6 | 9.7 | 0.03 | 0.76 | 0.46 | 94 | 1005.1 |
| 20260507002112 | 11 | 107 | 0.0 | 8.0 | 0.03 | 0.76 | 0.46 | 93 | 1005.1 |
| 20260507000112 | 11 | 107 | 0.0 | 0.0 | 0.15 | 0.76 | 0.46 | 93 | 1004.6 |
| 20260506235111 | 11 | 107 | 1.6 | 11.3 | 0.18 | 1.12 | 0.46 | 93 | 1004.2 |
| 20260506234111 | 11 | 93 | 0.0 | 3.2 | 0.23 | 1.09 | 0.43 | 93 | 1004.3 |
| 20260506233111 | 11 | 93 | 1.6 | 11.3 | 0.33 | 1.09 | 0.43 | 93 | 1004.4 |
| 20260506232111 | 11 | 140 | 1.6 | 8.0 | 0.38 | 1.09 | 0.43 | 93 | 1004.4 |
| 20260506230111 | 11 | 144 | 0.0 | 0.0 | 0.33 | 0.99 | 0.33 | 93 | 1005.2 |
| 20260506225111 | 11 | 144 | 0.0 | 0.0 | 0.28 | 1.12 | 0.28 | 93 | 1005.3 |
| 20260506223111 | 11 | 144 | 0.0 | 0.0 | 0.13 | 0.97 | 0.13 | 92 | 1005.3 |
| 20260506222111 | 11 | 144 | 0.0 | 0.0 | 0.05 | 0.89 | 0.05 | 92 | 1005.3 |
| 20260506215111 | 11 | 131 | 0.0 | 1.6 | 0.05 | 0.86 | 0.86 | 91 | 1004.2 |